| time (UTC) | temp C | wind direction | speed KPH | gust KPH | rain 1hr cm | rain 24hr cm | rain mn cm | humidity % | barometer mb |
| 20260506163916 | 9 | 215 | 9.7 | 0.0 | 0.00 | 0.56 | 0.51 | 85 | 1008.4 |
| 20260506162916 | 9 | 210 | 9.7 | 0.0 | 0.00 | 0.56 | 0.48 | 85 | 1008.5 |
| 20260506160916 | 10 | 205 | 6.4 | 0.0 | 0.00 | 0.56 | 0.41 | 86 | 1008.6 |
| 20260506155916 | 10 | 158 | 3.2 | 0.0 | 0.00 | 0.56 | 0.38 | 86 | 1008.5 |
| 20260506154916 | 10 | 240 | 9.7 | 0.0 | 0.00 | 0.56 | 0.36 | 85 | 1008.4 |
| 20260506153916 | 10 | 215 | 9.7 | 0.0 | 0.00 | 0.56 | 0.36 | 85 | 1008.4 |
| 20260506152916 | 10 | 183 | 9.7 | 0.0 | 0.00 | 0.56 | 0.33 | 85 | 1008.3 |
| 20260506151916 | 10 | 125 | 6.4 | 0.0 | 0.00 | 0.56 | 0.33 | 85 | 1008.2 |
| 20260506150916 | 10 | 168 | 8.0 | 0.0 | 0.00 | 0.56 | 0.28 | 84 | 1008.2 |
| 20260506145916 | 10 | 185 | 9.7 | 0.0 | 0.00 | 0.56 | 0.28 | 84 | 1008.1 |
| 20260506144916 | 10 | 238 | 11.3 | 0.0 | 0.00 | 0.56 | 0.25 | 83 | 1008.0 |
| 20260506143916 | 10 | 185 | 11.3 | 0.0 | 0.00 | 0.56 | 0.25 | 82 | 1007.9 |
| 20260506142916 | 11 | 158 | 11.3 | 0.0 | 0.00 | 0.56 | 0.25 | 83 | 1007.8 |
| 20260506141916 | 11 | 223 | 9.7 | 0.0 | 0.00 | 0.56 | 0.23 | 84 | 1007.7 |
| 20260506140917 | 11 | 193 | 11.3 | 0.0 | 0.00 | 0.56 | 0.23 | 83 | 1007.6 |
| 20260506135917 | 11 | 173 | 6.4 | 0.0 | 0.00 | 0.56 | 0.23 | 84 | 1007.4 |
| 20260506134916 | 11 | 175 | 9.7 | 0.0 | 0.00 | 0.56 | 0.23 | 84 | 1007.3 |
| 20260506133917 | 11 | 233 | 6.4 | 0.0 | 0.00 | 0.56 | 0.20 | 84 | 1007.3 |
| 20260506132916 | 11 | 300 | 11.3 | 0.0 | 0.00 | 0.56 | 0.20 | 84 | 1007.2 |
| 20260506131916 | 11 | 220 | 6.4 | 0.0 | 0.00 | 0.56 | 0.20 | 85 | 1007.2 |
| 20260506130916 | 11 | 328 | 9.7 | 0.0 | 0.00 | 0.56 | 0.18 | 85 | 1007.2 |
| 20260506125917 | 11 | 280 | 6.4 | 0.0 | 0.00 | 0.56 | 0.15 | 85 | 1007.2 |
| 20260506124916 | 11 | 315 | 8.0 | 0.0 | 0.00 | 0.56 | 0.13 | 83 | 1007.2 |
| 20260506123916 | 11 | 180 | 8.0 | 0.0 | 0.00 | 0.56 | 0.10 | 83 | 1007.1 |
| 20260506122916 | 11 | 190 | 6.4 | 0.0 | 0.00 | 0.56 | 0.10 | 82 | 1007.0 |
| 20260506121916 | 12 | 238 | 11.3 | 0.0 | 0.00 | 0.56 | 0.03 | 80 | 1006.9 |
| 20260506120916 | 12 | 265 | 9.7 | 0.0 | 0.00 | 0.56 | 0.03 | 78 | 1006.9 |
| 20260506115916 | 12 | 8 | 14.5 | 0.0 | 0.00 | 0.56 | 0.03 | 76 | 1006.9 |
| 20260506114916 | 13 | 295 | 11.3 | 0.0 | 0.00 | 0.56 | 0.03 | 71 | 1006.8 |
| 20260506113916 | 14 | 185 | 16.1 | 0.0 | 0.00 | 0.56 | 0.03 | 67 | 1006.6 |
| 20260506112917 | 15 | 200 | 11.3 | 0.0 | 0.00 | 0.56 | 0.03 | 67 | 1006.5 |
| 20260506111916 | 15 | 185 | 9.7 | 0.0 | 0.00 | 0.56 | 0.03 | 67 | 1006.4 |
| 20260506110916 | 15 | 160 | 9.7 | 0.0 | 0.00 | 0.56 | 0.03 | 66 | 1006.4 |
| 20260506105916 | 15 | 150 | 11.3 | 0.0 | 0.00 | 0.56 | 0.03 | 68 | 1006.4 |
| 20260506104916 | 15 | 175 | 9.7 | 0.0 | 0.00 | 0.56 | 0.03 | 69 | 1006.5 |
| 20260506103916 | 15 | 175 | 11.3 | 0.0 | 0.00 | 0.56 | 0.03 | 70 | 1006.6 |
| 20260506061916 | 8 | 158 | 6.4 | 0.0 | 0.00 | 0.56 | 0.03 | 93 | 1007.0 |
| 20260506060917 | 7 | 160 | 0.0 | 0.0 | 0.00 | 0.56 | 0.03 | 93 | 1007.0 |
| 20260506050917 | 5 | 138 | 0.0 | 0.0 | 0.00 | 0.56 | 0.03 | 93 | 1007.3 |
| 20260506044916 | 5 | 120 | 0.0 | 0.0 | 0.00 | 0.56 | 0.03 | 93 | 1007.4 |
| 20260506043916 | 5 | 98 | 0.0 | 0.0 | 0.00 | 0.56 | 0.03 | 93 | 1007.4 |
| 20260506042916 | 5 | 358 | 0.0 | 0.0 | 0.00 | 0.56 | 0.03 | 93 | 1007.4 |
| 20260506041916 | 5 | 0 | 0.0 | 0.0 | 0.00 | 0.56 | 0.03 | 93 | 1007.6 |
| 20260506040916 | 5 | 355 | 0.0 | 0.0 | 0.00 | 0.56 | 0.03 | 93 | 1007.6 |
| 20260506035917 | 5 | 25 | 0.0 | 0.0 | 0.00 | 0.56 | 0.03 | 93 | 1007.6 |
| 20260506034916 | 6 | 25 | 4.8 | 0.0 | 0.00 | 0.56 | 0.03 | 93 | 1007.4 |
| 20260506033916 | 6 | 308 | 6.4 | 0.0 | 0.00 | 0.56 | 0.03 | 93 | 1007.4 |
| 20260506032917 | 6 | 345 | 6.4 | 0.0 | 0.00 | 0.56 | 0.03 | 93 | 1007.5 |
| 20260506031916 | 6 | 240 | 8.0 | 0.0 | 0.00 | 0.56 | 0.03 | 93 | 1007.6 |
| 20260506030917 | 6 | 233 | 6.4 | 0.0 | 0.00 | 0.56 | 0.03 | 93 | 1007.8 |
| 20260506025916 | 6 | 138 | 4.8 | 0.0 | 0.00 | 0.56 | 0.03 | 93 | 1007.8 |
| 20260506024916 | 6 | 340 | 6.4 | 0.0 | 0.00 | 0.56 | 0.03 | 93 | 1008.1 |
| 20260506023916 | 6 | 355 | 0.0 | 0.0 | 0.00 | 0.56 | 0.03 | 93 | 1008.2 |
| 20260506022917 | 6 | 350 | 0.0 | 0.0 | 0.00 | 0.56 | 0.03 | 93 | 1008.3 |
| 20260506021916 | 6 | 233 | 8.0 | 0.0 | 0.00 | 0.56 | 0.03 | 93 | 1008.2 |
| 20260506020916 | 6 | 260 | 4.8 | 0.0 | 0.00 | 0.56 | 0.03 | 93 | 1008.3 |
| 20260506015916 | 6 | 318 | 3.2 | 0.0 | 0.00 | 0.56 | 0.03 | 93 | 1008.3 |
| 20260506014917 | 6 | 318 | 8.0 | 0.0 | 0.00 | 0.56 | 0.03 | 93 | 1008.5 |
| 20260506013917 | 6 | 220 | 4.8 | 0.0 | 0.00 | 0.56 | 0.03 | 93 | 1008.5 |
| 20260506012916 | 7 | 270 | 4.8 | 0.0 | 0.00 | 0.56 | 0.03 | 93 | 1008.7 |
| 20260506011916 | 7 | 320 | 6.4 | 0.0 | 0.00 | 0.56 | 0.03 | 93 | 1008.8 |
| 20260506010916 | 6 | 323 | 6.4 | 0.0 | 0.00 | 0.56 | 0.03 | 93 | 1008.9 |
| 20260506005916 | 6 | 263 | 4.8 | 0.0 | 0.00 | 0.56 | 0.03 | 93 | 1008.8 |
| 20260506004917 | 6 | 355 | 4.8 | 0.0 | 0.00 | 0.56 | 0.03 | 93 | 1008.6 |
| 20260506003916 | 6 | 263 | 3.2 | 0.0 | 0.00 | 0.56 | 0.03 | 93 | 1008.7 |
| 20260506002917 | 6 | 293 | 4.8 | 0.0 | 0.00 | 0.56 | 0.03 | 93 | 1008.7 |
| 20260506001917 | 6 | 230 | 0.0 | 0.0 | 0.00 | 0.56 | 0.03 | 92 | 1008.9 |
| 20260506000916 | 6 | 230 | 0.0 | 0.0 | 0.00 | 0.56 | 0.03 | 92 | 1009.1 |
| 20260505235917 | 6 | 340 | 0.0 | 0.0 | 0.00 | 0.56 | 0.03 | 92 | 1009.2 |
| 20260505234916 | 7 | 340 | 0.0 | 0.0 | 0.00 | 0.56 | 0.03 | 92 | 1009.2 |
| 20260505233916 | 7 | 340 | 0.0 | 0.0 | 0.00 | 0.56 | 0.03 | 92 | 1009.4 |
| 20260505232917 | 7 | 350 | 0.0 | 0.0 | 0.00 | 0.56 | 0.03 | 92 | 1009.5 |
| 20260505231917 | 7 | 323 | 0.0 | 0.0 | 0.00 | 0.56 | 0.03 | 91 | 1009.4 |
| 20260505230917 | 7 | 328 | 0.0 | 0.0 | 0.00 | 0.56 | 0.03 | 91 | 1009.6 |
| 20260505225916 | 7 | 318 | 6.4 | 0.0 | 0.00 | 0.56 | 0.00 | 91 | 1009.6 |
| 20260505224916 | 7 | 198 | 4.8 | 0.0 | 0.00 | 0.56 | 0.00 | 91 | 1009.5 |
| 20260505223917 | 7 | 5 | 0.0 | 0.0 | 0.00 | 0.56 | 0.00 | 91 | 1009.5 |
| 20260505222917 | 8 | 5 | 0.0 | 0.0 | 0.00 | 0.56 | 0.00 | 90 | 1009.5 |
| 20260505221916 | 8 | 3 | 0.0 | 0.0 | 0.00 | 0.56 | 0.00 | 90 | 1009.6 |
| 20260505220916 | 8 | 355 | 0.0 | 0.0 | 0.00 | 0.56 | 0.00 | 90 | 1009.6 |
| 20260505215917 | 8 | 0 | 8.0 | 0.0 | 0.00 | 0.00 | 0.56 | 90 | 1009.7 |
| 20260505214917 | 8 | 330 | 0.0 | 0.0 | 0.00 | 0.00 | 0.56 | 89 | 1009.6 |
| 20260505213917 | 8 | 30 | 0.0 | 0.0 | 0.00 | 0.00 | 0.56 | 89 | 1009.6 |
| 20260505212917 | 9 | 310 | 0.0 | 0.0 | 0.00 | 0.00 | 0.56 | 88 | 1009.7 |
| 20260505211917 | 9 | 358 | 4.8 | 0.0 | 0.00 | 0.00 | 0.56 | 88 | 1009.7 |
| 20260505210917 | 10 | 280 | 0.0 | 0.0 | 0.00 | 0.00 | 0.56 | 88 | 1009.9 |
| 20260505205917 | 10 | 235 | 4.8 | 0.0 | 0.00 | 0.00 | 0.56 | 87 | 1009.8 |
| 20260505204917 | 10 | 238 | 8.0 | 0.0 | 0.00 | 0.00 | 0.56 | 87 | 1009.8 |
| 20260505203917 | 10 | 293 | 6.4 | 0.0 | 0.00 | 0.00 | 0.56 | 87 | 1009.5 |
| 20260505202916 | 10 | 210 | 0.0 | 0.0 | 0.00 | 0.00 | 0.56 | 87 | 1009.4 |
| 20260505201916 | 10 | 203 | 8.0 | 0.0 | 0.00 | 0.00 | 0.56 | 87 | 1009.4 |
| 20260505200917 | 10 | 170 | 6.4 | 0.0 | 0.00 | 0.00 | 0.56 | 87 | 1009.3 |
| 20260505195916 | 10 | 313 | 4.8 | 0.0 | 0.00 | 0.00 | 0.56 | 86 | 1009.3 |
| 20260505194917 | 11 | 205 | 6.4 | 0.0 | 0.00 | 0.00 | 0.56 | 86 | 1009.3 |
| 20260505193916 | 11 | 183 | 4.8 | 0.0 | 0.00 | 0.00 | 0.56 | 87 | 1009.1 |
| 20260505192917 | 11 | 170 | 6.4 | 0.0 | 0.00 | 0.00 | 0.56 | 87 | 1008.9 |
| 20260505191916 | 11 | 243 | 4.8 | 0.0 | 0.00 | 0.00 | 0.56 | 86 | 1008.7 |
| 20260505190917 | 11 | 190 | 6.4 | 0.0 | 0.00 | 0.00 | 0.56 | 87 | 1008.9 |
| 20260505185916 | 11 | 215 | 6.4 | 0.0 | 0.00 | 0.00 | 0.56 | 87 | 1009.0 |
| 20260505184917 | 11 | 215 | 9.7 | 0.0 | 0.00 | 0.00 | 0.56 | 86 | 1009.1 |
| 20260505183916 | 11 | 205 | 6.4 | 0.0 | 0.00 | 0.00 | 0.56 | 86 | 1008.8 |
| 20260505182917 | 11 | 203 | 6.4 | 0.0 | 0.00 | 0.00 | 0.56 | 86 | 1008.7 |
| 20260505181917 | 12 | 210 | 6.4 | 0.0 | 0.00 | 0.00 | 0.56 | 85 | 1008.7 |
| 20260505180916 | 12 | 230 | 8.0 | 0.0 | 0.00 | 0.00 | 0.56 | 84 | 1008.6 |
| 20260505175916 | 12 | 208 | 8.0 | 0.0 | 0.00 | 0.00 | 0.56 | 83 | 1008.5 |
| 20260505174916 | 12 | 210 | 8.0 | 0.0 | 0.00 | 0.00 | 0.56 | 83 | 1008.6 |
| 20260505173917 | 12 | 228 | 0.0 | 0.0 | 0.00 | 0.00 | 0.56 | 83 | 1008.6 |
| 20260505172916 | 12 | 223 | 9.7 | 0.0 | 0.00 | 0.00 | 0.56 | 83 | 1008.6 |
| 20260505171916 | 12 | 210 | 6.4 | 0.0 | 0.00 | 0.00 | 0.56 | 84 | 1008.6 |
| 20260505170916 | 12 | 115 | 6.4 | 0.0 | 0.00 | 0.00 | 0.56 | 84 | 1008.5 |
| 20260505165917 | 12 | 143 | 9.7 | 0.0 | 0.00 | 0.00 | 0.53 | 85 | 1008.6 |
| 20260505164917 | 12 | 175 | 3.2 | 0.0 | 0.00 | 0.00 | 0.53 | 85 | 1008.6 |